EXPRESS-AMU1

Last updated on Aug. 12, 2020, 5:32 a.m. UTC

1 41191U 15082A   20224.83521569  .00000157  00000-0  00000-0 0  9994
2 41191   0.0167 108.5565 0002531  45.9161 143.0299  1.00270691 16864
UTC
Height (km)
Latitude
Longitude
Inclination
Orbital Period
UTC large
Height (km)
Speed (km/s)
/
Latitude / Longitude
Inclination (degrees)
Orbital Period (minutes)
Azimuth
Elevation
Range (km)
Doppler Factor
iOS Compass Heading
iOS Angle

Next 30 passes for location: Hong Kong

Rise time Rise Azimuth (degrees) Set time Set Azimuth (degrees) Duration Max altitude (degrees)

No matching passes for this satellites